Location: Oberkirch
(48.5323°N, 8.0787°E)
Time: 18:16:27
(UTC+00:00)

Lacrosse 5 rocket - Pass Details

Date: 08 November 2025
Orbit: 406 x 493 km, 57.0° (Epoch: 10 December)

Event Time Altitude Azimuth Distance (km) Brightness Sun altitude
Exits shadow 03:45:07 16° 34° (NE) 1,197 3.4 -26.6°
Drops below altitude 10° 03:46:04 10° 43° (NE) 1,525 4.2 -26.4°
Sets 03:48:16 0° 54° (NE) 2,378 5.5 -26.1°
